Regional Weather Roundup
Issued by NWS

Home | Current Version | Previous Version | Graphics & Text | Print | Product List | Glossary On
Versions: 1 2 3 4 5 6 7 8 9 10 11 12 13 14 15 16 17 18 19 20 21 22 23 24 25 26 27 28 29 30 31 32 33 34 35 36 37 38 39 40 41 42 43 44 45 46 47 48 49 50
000
ASUS43 KBIS 220820
RWRND

NORTH DAKOTA REGIONAL WEATHER ROUNDUP
NATIONAL WEATHER SERVICE BISMARCK ND
200 AM CST MON DEC 22 2014

NOTE: "FAIR" INDICATES FEW OR NO CLOUDS BELOW 12,000 FEET WITH NO
SIGNIFICANT WEATHER AND/OR OBSTRUCTIONS TO VISIBILITY.


NDZ001>003-009>011-017-220900-
NORTHWEST NORTH DAKOTA

CITY           SKY/WX    TMP DP  RH WIND       PRES   REMARKS
WILLISTON      CLOUDY    32  29  88 CALM      29.41S
MINOT          CLOUDY    28  27  96 SE9       29.43S FOG     WCI  19
MINOT AFB      FRZ DRZL  28  28 100 SE12      29.43S VSB 1   WCI  18
$$

NDZ018>021-031>035-040>046-220900-
SOUTHWEST NORTH DAKOTA

CITY           SKY/WX    TMP DP  RH WIND       PRES   REMARKS
BISMARCK       CLOUDY    28  28 100 SE6       29.44F FOG
DICKINSON      CLOUDY    36  33  89 W15       29.39R
GARRISON         N/A     28  28 100 SE7       29.41F
HETTINGER ARPT CLOUDY    36  33  89 W13       29.43S
$$

NDZ004>008-012>016-024-026-027-054-220900-
NORTHEAST NORTH DAKOTA

CITY           SKY/WX    TMP DP  RH WIND       PRES   REMARKS
GRAND FORKS    CLOUDY    34  34 100 SE7       29.53F
GRND FRKS AFB  CLOUDY    33  33 100 SE5       29.54S FOG
DEVILS LAKE    CLOUDY    30  25  80 SE9       29.47F
$$

NDZ022-023-025-028>030-036>039-047>053-220900-
SOUTHEAST NORTH DAKOTA

CITY           SKY/WX    TMP DP  RH WIND       PRES   REMARKS
FARGO          CLOUDY    37  35  92 SE9       29.52S FOG
JAMESTOWN      CLOUDY    32  31  96 SE7       29.45F FOG
$$




USA.gov is the U.S. government's official web portal to all federal, state and local government web resources and services.